RH
29 29 28 27 26 27 27 28 33 50 74 84 85 83 82 79 74 69 70 75 74 74 70 66 66 66 67 69 71 74 75 73 74 63 50 46 39 38 36 38 42 48 60
31 35 36 32 30 31 30 31 32 30 30 37 62 83 88 86 83 80 73 73 72 71 70 71 71 71 72 68 71 76 82 80 80 65 54 55 50 43 41 38 41 44 48
34 43 46 41 39 38 36 34 34 36 36 34 32 32 34 55 85 80 81 75 78 79 74 71 74 77 82 78 70 74 85 89 87 80 66 71 70 59 42 38 37 41 44
35 50 50 47 44 47 45 46 45 44 43 41 40 39 35 36 35 39 41 66 80 82 85 85 80 79 75 84 82 78 82 91 95 87 71 66 55 67 72 46 40 38 44
52 56 52 48 53 51 50 49 48 48 48 46 44 45 46 48 46 40 39 38 41 49 52 76 86 73 66 68 80 89 90 91 94 94 80 75 72 60 67 73 63 52 43
57 58 52 55 55 53 51 50 52 53 53 54 54 54 53 53 51 49 48 46 45 44 49 63 75 82 82 74 75 78 87 95 93 98 95 82 71 74 71 81 80 71 55
62 66 67 61 58 56 54 55 55 57 58 58 58 59 58 59 60 60 61 59 58 64 66 66 72 82 82 84 76 78 83 85 95 97 98 94 85 78 74 82 88 89 72
62 69 66 61 60 60 61 60 61 63 61 60 60 61 61 61 67 69 72 74 74 76 74 75 76 74 84 88 83 79 88 89 88 97 99 97 94 92 89 85 88 96 89
65 70 66 62 65 66 66 65 65 66 64 64 63 63 65 66 75 81 78 77 79 82 81 76 77 78 83 88 97 92 97 90 88 88 98 96 93 97 93 94 89 91 98
69 68 67 70 70 68 70 70 68 68 68 67 69 74 80 83 85 80 76 81 83 84 84 82 80 77 79 83 84 86 96 99 99 99 99 100 99 98 100 100 100 99 97
71 70 69 72 71 73 73 74 73 72 70 70 74 77 79 81 79 78 77 84 83 82 86 86 86 85 84 86 88 92 93 92 98 99 100 100 100 100 100 100 99 97 98
67 67 72 75 76 78 78 78 78 77 74 73 77 79 79 80 79 78 77 81 82 80 81 84 85 85 86 87 87 88 89 89 90 92 96 99 100 100 100 99 100 100 100
67 67 78 80 81 82 81 80 80 79 77 76 80 82 82 82 83 82 81 80 80 81 81 80 81 83 84 88 89 87 86 88 89 94 97 100 99 99 99 100 99 99 100
67 70 81 84 84 82 82 82 82 81 80 81 86 86 87 89 90 90 90 89 88 86 86 86 87 88 86 85 87 89 90 90 90 91 92 93 93 95 97 99 100 100 100
68 70 81 89 86 84 85 85 84 82 82 83 88 90 92 94 98 98 97 96 93 96 96 93 91 96 99 94 90 90 91 92 96 98 100 100 99 98 99 99 100 100 99
68 70 77 83 88 86 85 89 88 84 84 86 91 93 95 98 99 99 99 97 99 99 98 98 98 98 99 99 95 92 96 100 100 99 100 100 99 100 99 99 99 99 100
69 74 80 84 87 87 88 93 91 88 88 89 92 94 99 99 99 99 99 99 100 98 99 98 98 99 99 99 93 92 93 95 97 96 94 93 97 98 98 98 100 99 99
70 77 84 86 87 89 95 98 94 93 93 97 98 100 100 100 100 100 100 99 99 99 99 100 99 99 100 98 92 92 93 92 90 76 68 64 60 79 75 68 70 72 72
74 80 81 83 88 93 98 99 99 96 96 99 99 100 99 100 100 99 99 100 98 98 99 98 99 95 86 74 58 58 57 56 56 57 64 54 60 74 79 75 74 77 78
77 84 82 85 89 95 99 100 100 100 99 99 99 98 100 99 99 99 97 100 98 99 84 84 83 79 77 75 70 54 55 56 56 53 53 74 81 85 88 88 84 83 81
82 82 85 88 90 94 98 100 100 100 99 98 99 99 96 97 97 99 99 87 75 77 80 78 78 71 71 81 78 72 56 52 56 61 64 67 89 88 84 83 82 76 83
88 86 90 91 94 94 91 98 98 94 92 90 92 97 100 100 99 66 57 60 62 61 64 61 57 51 45 63 71 74 76 77 65 68 72 77 83 82 78 72 67 67 74
88 88 91 94 95 92 91 94 91 90 89 90 90 91 96 91 58 55 57 59 52 47 45 46 40 34 36 47 58 75 84 83 75 80 86 86 83 79 59 53 64 61 54
87 90 93 93 96 94 92 90 89 88 90 90 90 89 83 77 70 55 43 41 39 37 36 33 34 35 39 52 60 64 64 66 70 76 79 60 66 56 54 52 54 56 62
86 89 91 93 92 93 92 87 89 92 90 88 80 58 44 43 39 37 36 34 32 32 30 29 32 35 39 44 71 74 76 78 82 80 79 53 49 51 52 58 64 69 77
90 91 89 89 91 92 91 88 88 88 86 80 54 38 37 41 38 40 44 40 35 32 28 28 28 32 38 69 73 75 79 84 82 80 77 56 51 52 57 66 71 74 85
Wind_Speed
3 7 12 13 14 13 13 12 9 9 16 21 22 23 28 27 26 27 32 30 27 27 31 33 34 32 32 34 34 34 35 35 32 22 24 26 27 27 29 29 30 32 31
6 7 10 12 10 8 7 7 6 4 4 7 13 18 18 27 31 31 29 27 28 28 28 26 31 35 36 38 37 34 34 37 34 18 3 3 11 29 34 33 33 34 33
9 6 8 10 9 8 5 3 2 3 2 2 6 9 9 11 12 16 22 24 24 26 27 27 27 30 32 38 42 40 37 29 27 31 13 1 6 2 13 35 38 38 36
5 6 8 9 8 7 5 5 4 4 5 2 2 2 5 9 11 12 13 15 18 20 24 26 27 27 27 33 37 39 40 34 25 25 35 25 4 4 4 9 21 36 33
9 9 9 11 9 7 5 4 4 6 6 6 5 5 5 5 7 9 11 13 14 14 17 21 26 25 24 27 28 33 35 36 30 30 20 34 22 10 5 4 5 11 28
8 8 11 14 11 7 6 5 6 6 6 5 6 7 7 8 8 8 7 8 9 9 9 11 20 25 27 25 23 23 26 31 36 32 31 27 13 20 14 4 6 8 12
8 8 7 11 9 7 6 5 5 5 5 5 6 7 7 7 7 5 5 6 7 6 5 6 8 14 17 18 19 20 20 21 23 27 32 35 35 28 21 17 11 7 13
7 8 9 11 11 9 8 6 6 5 4 4 6 6 6 6 5 5 3 3 5 6 8 8 7 7 7 11 13 13 15 15 18 18 24 28 32 33 30 24 14 4 7
8 8 10 12 12 11 9 7 5 4 3 5 6 6 5 4 2 3 5 7 7 7 8 8 8 7 6 7 8 7 10 12 13 15 17 22 24 26 28 29 26 18 3
7 7 9 12 12 11 10 7 5 4 4 4 6 6 6 4 3 3 5 7 6 6 6 6 6 6 7 6 5 4 6 7 9 9 13 17 21 23 22 23 24 21 15
7 7 9 13 12 10 8 7 5 4 4 4 5 5 5 4 3 5 6 6 7 8 7 7 6 6 5 5 3 3 3 4 4 7 6 7 11 13 13 14 16 19 17
8 7 11 13 10 9 7 5 4 3 5 4 4 5 3 2 3 5 6 5 7 8 8 8 7 7 6 6 5 6 6 8 7 6 6 6 6 6 8 9 10 10 11
7 6 8 9 9 7 5 3 2 3 4 3 3 4 5 5 5 4 3 4 6 7 8 9 9 9 8 6 5 3 4 4 4 5 5 5 5 6 8 8 7 8 8
8 6 6 8 9 6 4 2 2 2 3 3 4 5 6 6 6 5 6 7 8 9 10 10 10 10 10 9 8 7 7 7 6 6 6 6 6 5 4 3 2 2 1
7 7 7 7 9 6 4 2 2 2 1 2 4 4 3 3 5 6 8 9 9 10 11 12 13 13 15 13 9 8 10 10 11 12 12 13 13 11 7 5 5 4 4
8 7 7 9 9 8 5 4 3 3 2 3 4 3 3 4 5 7 8 10 11 12 13 15 18 16 16 13 12 11 13 13 12 13 12 10 11 13 12 10 8 7 5
8 9 8 10 10 7 5 5 5 5 5 5 5 4 5 7 8 9 11 12 14 13 15 16 16 15 15 13 13 11 12 11 11 10 10 10 9 7 6 5 3 5 5
9 8 11 12 11 9 6 6 6 7 6 5 4 4 6 8 10 12 13 13 13 13 14 14 14 14 13 11 11 10 9 9 10 11 11 11 10 9 8 7 6 5 4
8 13 16 14 12 11 9 7 7 8 7 5 2 4 7 10 12 13 12 11 13 13 12 12 11 11 11 10 11 9 9 9 9 9 10 10 9 7 5 6 6 5 4
16 18 18 16 14 12 12 11 9 9 10 8 6 8 9 11 12 12 12 12 11 11 12 13 12 10 10 9 7 6 5 5 6 6 6 6 7 6 6 8 7 6 5
17 19 19 18 16 15 14 13 12 11 12 12 10 10 10 12 12 11 11 10 9 9 8 9 8 7 7 6 6 6 6 5 5 5 5 5 6 7 7 7 8 7 8
16 19 18 16 17 17 16 15 14 13 15 14 12 11 12 10 10 11 12 10 6 5 5 4 3 2 2 2 3 4 4 6 5 5 6 8 6 7 7 8 7 7 8
14 18 17 16 17 19 19 17 17 16 16 15 13 11 9 9 8 7 7 7 6 5 4 3 3 2 1 1 1 2 3 4 5 5 7 8 8 8 7 7 6 6 7
15 18 17 16 17 22 22 20 20 19 18 18 15 13 12 9 9 8 8 7 6 6 6 5 4 4 4 3 4 4 6 6 7 7 9 8 6 5 5 7 5 5 6
19 21 20 19 20 23 24 22 23 23 20 18 17 15 13 12 11 10 8 7 6 6 6 6 5 5 5 5 4 6 8 8 8 9 10 8 5 5 8 7 6 6 6
18 20 22 21 21 23 25 23 22 24 23 21 20 18 17 15 13 11 8 8 5 4 3 4 4 4 5 5 6 6 7 7 8 10 9 7 6 8 8 8 9 9 8
Wind_Direction
27 111 135 146 137 132 138 147 159 192 228 233 234 239 240 240 239 242 243 243 243 247 244 245 248 249 246 246 246 245 244 243 246 237 237 241 244 246 242 241 243 242 240
147 125 124 124 122 111 109 123 132 157 188 210 230 238 245 250 252 249 249 250 254 253 252 253 252 251 252 250 252 248 243 242 243 221 217 263 261 249 246 239 238 242 241
166 153 141 127 120 105 89 70 29 31 45 243 235 236 241 243 252 256 259 261 263 263 265 265 263 260 257 251 252 249 247 242 239 232 212 119 228 317 245 239 237 238 239
159 153 149 135 123 106 96 81 55 34 27 11 349 319 266 265 263 264 266 265 268 270 269 265 267 267 263 258 256 253 252 246 239 237 229 239 215 195 300 251 246 240 241
159 157 155 144 131 120 99 73 55 47 33 24 9 8 0 341 313 294 279 271 271 281 281 271 262 264 265 266 265 258 250 248 240 235 234 235 240 234 218 270 263 247 242
163 153 142 142 130 116 92 75 63 48 31 30 24 16 358 348 338 340 333 316 304 291 284 284 265 262 266 271 269 274 266 254 253 242 242 230 221 229 223 237 262 258 257
156 148 137 136 128 108 93 82 76 64 39 24 7 3 4 356 347 337 323 321 330 329 313 309 303 267 262 265 262 266 269 267 260 256 249 247 239 244 232 228 244 242 259
163 160 150 137 123 114 106 106 106 84 38 355 342 334 335 344 340 325 332 339 330 316 313 316 313 311 282 258 257 266 276 273 278 273 267 263 258 252 245 237 219 220 207
163 156 144 140 133 124 114 114 103 82 24 347 322 323 326 339 349 12 0 346 332 325 318 310 302 295 293 290 281 264 267 272 277 283 287 278 275 264 264 254 240 241 252
148 141 142 141 134 126 119 114 103 77 38 7 9 25 40 78 98 52 15 16 356 340 333 320 317 307 294 300 312 319 301 301 301 296 285 271 267 267 265 260 261 252 248
156 152 149 148 141 135 126 115 104 66 28 21 30 44 68 83 76 51 24 9 354 11 18 24 22 22 13 4 352 352 338 320 326 336 322 283 274 272 266 262 258 251 245
160 158 150 150 147 140 132 116 87 39 16 20 37 57 53 57 53 45 30 7 12 15 25 36 43 43 38 34 35 25 20 18 351 333 334 320 312 306 299 293 291 287 268
147 141 140 154 154 151 141 120 60 28 23 35 69 74 61 56 51 44 46 36 37 39 40 40 43 44 41 36 35 23 5 16 354 11 2 345 334 331 319 313 307 288 273
159 154 147 155 156 154 152 122 86 48 40 75 85 77 64 63 66 73 79 76 68 62 56 56 53 47 41 39 42 46 59 63 53 51 43 29 20 12 0 345 332 326 84
170 168 158 156 160 158 156 147 118 115 110 112 97 80 70 68 72 69 80 80 78 79 78 71 58 46 44 42 52 69 75 74 76 74 71 66 63 52 54 53 49 40 49
180 165 154 159 170 171 162 148 127 117 137 128 107 98 88 91 92 82 83 91 87 81 75 68 64 61 55 53 57 67 79 82 80 78 79 77 70 77 65 61 56 45 31
173 167 166 169 169 162 161 168 148 132 132 120 116 110 115 104 101 106 105 99 92 89 86 85 80 69 59 55 59 66 77 82 79 74 66 63 60 50 40 36 43 66 58
165 161 155 163 157 150 155 173 165 152 140 127 121 124 123 121 118 114 106 104 103 101 98 93 90 83 67 61 59 61 67 75 76 70 65 64 62 55 39 28 29 33 21
156 162 166 160 156 157 163 171 164 159 145 120 131 143 140 130 124 118 120 120 117 110 103 97 93 86 75 59 60 62 67 74 65 54 48 41 41 30 15 359 4 353 360
151 152 158 161 161 166 168 167 161 151 129 136 151 140 139 137 136 137 129 121 115 113 114 114 103 90 81 65 48 35 31 32 27 24 33 36 17 10 11 356 356 348 333
149 158 163 166 169 166 175 167 162 156 131 136 140 140 145 148 144 131 126 124 123 124 125 123 109 94 76 68 55 33 16 21 7 0 357 344 347 349 347 338 332 328 320
152 164 164 172 175 174 179 171 169 160 140 147 147 162 163 155 147 134 131 133 140 140 138 136 123 103 90 69 43 21 15 355 352 337 336 335 333 331 331 323 319 313 303
165 174 172 173 183 185 187 179 178 166 156 164 168 176 178 170 149 154 170 183 193 200 209 222 243 259 250 273 283 349 12 2 327 322 322 311 303 313 315 332 324 312 309
181 180 180 186 192 198 197 196 181 177 180 180 179 184 197 197 204 207 203 208 206 213 223 234 252 270 271 267 310 321 329 325 323 317 322 326 308 299 305 320 316 312 312
187 187 190 197 202 201 204 201 192 186 192 191 195 198 199 203 202 204 209 210 230 238 245 247 253 263 269 282 301 312 317 316 320 306 317 332 340 336 329 326 322 319 314
191 193 199 200 203 200 205 205 202 197 198 202 202 199 201 203 207 204 199 201 209 225 238 249 263 269 280 276 289 301 302 300 309 302 299 314 323 330 324 321 319 316 309